Regional Weather Roundup
Issued by NWS

Home | Current Version | Previous Version | Graphics & Text | Print | Product List | Glossary On
Versions: 1 2 3 4 5 6 7 8 9 10 11 12 13 14 15 16 17 18 19 20 21 22 23 24 25 26 27 28 29 30 31 32 33 34 35 36 37 38 39 40 41 42 43 44 45 46 47 48 49 50
000
ASUS45 KSLC 270710
RWRUT

UTAH REGIONAL WEATHER ROUNDUP
NATIONAL WEATHER SERVICE SALT LAKE CITY UT
100 AM MDT MON MAR 27 2017

UTZ001>011-023>025-270800-

NORTHERN UTAH

CITY           SKY/WX    TMP DP  RH WIND       PRES   REMARKS
BRIGHAM CITY     N/A     50  32  49 S5        29.92F
HILL AFB       CLOUDY    48  30  49 S9        29.92S
LOGAN          CLOUDY    45  38  76 CALM      29.92F
OGDEN          CLOUDY    48  31  51 S8        29.92S
SALT LAKE CITY CLOUDY    49  34  56 SE7       29.91F
WENDOVER       NOT AVBL
HEBER CITY     CLOUDY    36  30  80 CALM      29.95F

$$

UTZ011>015-024>027-270800-

CENTRAL/NORTHEAST UTAH

CITY           SKY/WX    TMP DP  RH WIND       PRES   REMARKS
PROVO AIRPORT  CLOUDY    46  34  62 SE3       29.95F
MOAB/CANYONLAN CLEAR     44  24  45 CALM      29.92F
DELTA          CLOUDY    45  36  70 S3        29.93F
PRICE          CLOUDY    43  28  55 NE5       29.96F
RICHFIELD      CLOUDY    45  36  70 CALM      29.99F
ROOSEVELT      CLOUDY    43  32  65 W7        29.97F
VERNAL         MOCLDY    38  31  76 CALM      29.95F

$$

UTZ013>016-019>022-027-270800-

SOUTHERN UTAH

CITY           SKY/WX    TMP DP  RH WIND       PRES   REMARKS
BRYCE CANYON   PTCLDY    30  25  81 CALM      30.04F
CEDAR CITY     CLOUDY    45  33  63 SW7       29.98F
MILFORD        CLOUDY    49  34  56 S14       29.95S
ST GEORGE      CLOUDY    55  31  39 E7        29.94S
HANKSVILLE     CLEAR     39  27  60 NW5       29.96S
KANAB          CLEAR     37  32  81 NW3       30.04R
BLANDING       CLEAR     34  24  67 NE7       30.06F WCI  28

$$

REGIONAL REPORTS     COLORADO/ARIZONA

CITY           SKY/WX    TMP DP  RH WIND       PRES   REMARKS
CRAIG, CO      CLOUDY    29  23  78 CALM      29.98F
GRAND JUNCTION CLOUDY    44  21  40 NE8       29.95F
RIFLE, CO      CLEAR     36  28  73 CALM      29.99S
MONTROSE, CO   CLEAR     39  33  79 SE9       30.01F WCI  33
CORTEZ, CO     CLEAR     33  30  88 NE5       30.02S WCI  29
COLORADO CITY    N/A     37  34  87 SE7       30.03S WCI  32
PAGE, AZ       CLEAR     54  35  48 SW3       29.95F
GRAND CANYON   PTCLDY    31  28  89 CALM      30.06F
KINGMAN, AZ    CLEAR     52  23  32 SE13      29.95F
FLAGSTAFF, AZ  CLEAR     33  25  72 SW3       30.08F

$$

REGIONAL REPORTS    NEVADA/IDAHO/WYOMING

CITY           SKY/WX    TMP DP  RH WIND       PRES   REMARKS
LAS VEGAS, NV  MOCLDY    64  30  27 S8        29.86F
ELY, NY        MOCLDY    42  33  70 S9        29.93F
ELKO, NV       CLOUDY    38  31  76 CALM      29.91F
POCATELLO, ID  CLOUDY    41  39  93 S5        29.92F
BURLEY, ID     CLOUDY    43  37  79 SE3       29.89S
FORT BRIDGER,  CLOUDY    35  27  72 S3        29.99F
EVANSTON, WY   CLOUDY    35  24  64 SW8       29.95F WCI  29
ROCK SPRINGS,  CLOUDY    36  26  67 SW8       29.97F WCI  30
KEMMERER, WY     N/A     32  27  80 CALM      29.96F

$$



USA.gov is the U.S. government's official web portal to all federal, state and local government web resources and services.